Year,Month,Day,Hour,Minute,Value (Times are PST for temperature in C)
2020,07,27,00,00,18.50
2020,07,27,00,01,18.40
2020,07,27,00,02,18.40
2020,07,27,00,03,18.40
2020,07,27,00,04,18.30
2020,07,27,00,05,18.30
2020,07,27,00,06,18.30
2020,07,27,00,07,18.30
2020,07,27,00,08,18.30
2020,07,27,00,09,18.30
2020,07,27,00,10,18.30
2020,07,27,00,11,18.30
2020,07,27,00,12,18.30
2020,07,27,00,13,18.20
2020,07,27,00,14,18.20
2020,07,27,00,15,18.20
2020,07,27,00,16,18.20
2020,07,27,00,17,18.20
2020,07,27,00,18,18.20
2020,07,27,00,19,18.10
2020,07,27,00,20,18.10
2020,07,27,00,21,18.10
2020,07,27,00,22,18.10
2020,07,27,00,23,18.10
2020,07,27,00,24,18.00
2020,07,27,00,25,18.00
2020,07,27,00,26,18.00
2020,07,27,00,27,18.00
2020,07,27,00,28,18.00
2020,07,27,00,29,17.90
2020,07,27,00,30,17.90
2020,07,27,00,31,17.90
2020,07,27,00,32,17.90
2020,07,27,00,33,17.90
2020,07,27,00,34,17.90
2020,07,27,00,35,17.90
2020,07,27,00,36,17.90
2020,07,27,00,37,17.90
2020,07,27,00,38,17.90
2020,07,27,00,39,17.90
2020,07,27,00,40,17.90
2020,07,27,00,41,17.90
2020,07,27,00,42,17.90
2020,07,27,00,43,17.90
2020,07,27,00,44,17.90
2020,07,27,00,45,17.90
2020,07,27,00,46,17.90
2020,07,27,00,47,17.90
2020,07,27,00,48,17.90
2020,07,27,00,49,17.90
2020,07,27,00,50,17.90
2020,07,27,00,51,17.90
2020,07,27,00,52,17.90
2020,07,27,00,53,17.90
2020,07,27,00,54,17.90
2020,07,27,00,55,17.90
2020,07,27,00,56,17.90
2020,07,27,00,57,17.90
2020,07,27,00,58,17.90
2020,07,27,00,59,17.90
2020,07,27,01,00,17.80
2020,07,27,01,01,17.80
2020,07,27,01,02,17.80
2020,07,27,01,03,17.80
2020,07,27,01,04,17.80
2020,07,27,01,05,17.80
2020,07,27,01,06,17.80
2020,07,27,01,07,17.70
2020,07,27,01,08,17.70
2020,07,27,01,09,17.70
2020,07,27,01,10,17.70
2020,07,27,01,11,17.60
2020,07,27,01,12,17.60
2020,07,27,01,13,17.60
2020,07,27,01,14,17.60
2020,07,27,01,15,17.50
2020,07,27,01,16,17.50
2020,07,27,01,17,17.50
2020,07,27,01,18,17.40
2020,07,27,01,19,17.50
2020,07,27,01,20,17.50
2020,07,27,01,21,17.40
2020,07,27,01,22,17.40
2020,07,27,01,23,17.40
2020,07,27,01,24,17.40
2020,07,27,01,25,17.40
2020,07,27,01,26,17.40
2020,07,27,01,27,17.40
2020,07,27,01,28,17.40
2020,07,27,01,29,17.40
2020,07,27,01,30,17.40
2020,07,27,01,31,17.40
2020,07,27,01,32,17.40
2020,07,27,01,33,17.40
2020,07,27,01,34,17.40
2020,07,27,01,35,17.40
2020,07,27,01,36,17.30
2020,07,27,01,37,17.30
2020,07,27,01,38,17.30
2020,07,27,01,39,17.30
2020,07,27,01,40,17.30
2020,07,27,01,41,17.30
2020,07,27,01,42,17.30
2020,07,27,01,43,17.20
2020,07,27,01,44,17.20
2020,07,27,01,45,17.20
2020,07,27,01,46,17.20
2020,07,27,01,47,17.20
2020,07,27,01,48,17.10
2020,07,27,01,49,17.10
2020,07,27,01,50,17.00
2020,07,27,01,51,17.00
2020,07,27,01,52,17.00
2020,07,27,01,53,16.90
2020,07,27,01,54,16.90
2020,07,27,01,55,16.90
2020,07,27,01,56,16.90
2020,07,27,01,57,16.80
2020,07,27,01,58,16.80
2020,07,27,01,59,16.80
2020,07,27,02,00,16.80
2020,07,27,02,01,16.80
2020,07,27,02,02,16.80
2020,07,27,02,03,16.80
2020,07,27,02,04,16.80
2020,07,27,02,05,16.80
2020,07,27,02,06,16.80
2020,07,27,02,07,16.80
2020,07,27,02,08,16.80
2020,07,27,02,09,16.80
2020,07,27,02,10,16.80
2020,07,27,02,11,16.80
2020,07,27,02,12,16.70
2020,07,27,02,13,16.70
2020,07,27,02,14,16.70
2020,07,27,02,15,16.70
2020,07,27,02,16,16.70
2020,07,27,02,17,16.70
2020,07,27,02,18,16.60
2020,07,27,02,19,16.60
2020,07,27,02,20,16.60
2020,07,27,02,21,16.60
2020,07,27,02,22,16.60
2020,07,27,02,23,16.50
2020,07,27,02,24,16.50
2020,07,27,02,25,16.50
2020,07,27,02,26,16.40
2020,07,27,02,27,16.40
2020,07,27,02,28,16.40
2020,07,27,02,29,16.40
2020,07,27,02,30,16.30
2020,07,27,02,31,16.30
2020,07,27,02,32,16.30
2020,07,27,02,33,16.30
2020,07,27,02,34,16.30
2020,07,27,02,35,16.30
2020,07,27,02,36,16.30
2020,07,27,02,37,16.30
2020,07,27,02,38,16.20
2020,07,27,02,39,16.30
2020,07,27,02,40,16.20
2020,07,27,02,41,16.30
2020,07,27,02,42,16.20
2020,07,27,02,43,16.30
2020,07,27,02,44,16.30
2020,07,27,02,45,16.30
2020,07,27,02,46,16.30
2020,07,27,02,47,16.30
2020,07,27,02,48,16.30
2020,07,27,02,49,16.30
2020,07,27,02,50,16.30
2020,07,27,02,51,16.30
2020,07,27,02,52,16.30
2020,07,27,02,53,16.40
2020,07,27,02,54,16.30
2020,07,27,02,55,16.30
2020,07,27,02,56,16.30
2020,07,27,02,57,16.30
2020,07,27,02,58,16.30
2020,07,27,02,59,16.30
2020,07,27,03,00,16.20
2020,07,27,03,01,16.20
2020,07,27,03,02,16.20
2020,07,27,03,03,16.10
2020,07,27,03,04,16.10
2020,07,27,03,05,16.10
2020,07,27,03,06,16.10
2020,07,27,03,07,16.10
2020,07,27,03,08,16.10
2020,07,27,03,09,16.10
2020,07,27,03,10,16.10
2020,07,27,03,11,16.10
2020,07,27,03,12,16.10
2020,07,27,03,13,16.10
2020,07,27,03,14,16.10
2020,07,27,03,15,16.10
2020,07,27,03,16,16.10
2020,07,27,03,17,16.00
2020,07,27,03,18,16.00
2020,07,27,03,19,16.00
2020,07,27,03,20,16.00
2020,07,27,03,21,16.00
2020,07,27,03,22,16.00
2020,07,27,03,23,15.90
2020,07,27,03,24,15.90
2020,07,27,03,25,15.90
2020,07,27,03,26,15.80
2020,07,27,03,27,15.80
2020,07,27,03,28,15.80
2020,07,27,03,29,15.80
2020,07,27,03,30,15.80
2020,07,27,03,31,15.80
2020,07,27,03,32,15.80
2020,07,27,03,33,15.80
2020,07,27,03,34,15.80
2020,07,27,03,35,15.70
2020,07,27,03,36,15.70
2020,07,27,03,37,15.70
2020,07,27,03,38,15.70
2020,07,27,03,39,15.70
2020,07,27,03,40,15.70
2020,07,27,03,41,15.70
2020,07,27,03,42,15.70
2020,07,27,03,43,15.70
2020,07,27,03,44,15.70
2020,07,27,03,45,15.70
2020,07,27,03,46,15.70
2020,07,27,03,47,15.60
2020,07,27,03,48,15.60
2020,07,27,03,49,15.60
2020,07,27,03,50,15.60
2020,07,27,03,51,15.60
2020,07,27,03,52,15.50
2020,07,27,03,53,15.50
2020,07,27,03,54,15.50
2020,07,27,03,55,15.50
2020,07,27,03,56,15.50
2020,07,27,03,57,15.50
2020,07,27,03,58,15.40
2020,07,27,03,59,15.40
2020,07,27,04,00,15.40
2020,07,27,04,01,15.40
2020,07,27,04,02,15.40
2020,07,27,04,03,15.30
2020,07,27,04,04,15.30
2020,07,27,04,05,15.30
2020,07,27,04,06,15.30
2020,07,27,04,07,15.30
2020,07,27,04,08,15.30
2020,07,27,04,09,15.30
2020,07,27,04,10,15.30
2020,07,27,04,11,15.30
2020,07,27,04,12,15.20
2020,07,27,04,13,15.20
2020,07,27,04,14,15.20
2020,07,27,04,15,15.20
2020,07,27,04,16,15.20
2020,07,27,04,17,15.20
2020,07,27,04,18,15.20
2020,07,27,04,19,15.20
2020,07,27,04,20,15.20
2020,07,27,04,21,15.20
2020,07,27,04,22,15.20
2020,07,27,04,23,15.20
2020,07,27,04,24,15.20
2020,07,27,04,25,15.20
2020,07,27,04,26,15.20
2020,07,27,04,27,15.20
2020,07,27,04,28,15.20
2020,07,27,04,29,15.20
2020,07,27,04,30,15.20
2020,07,27,04,31,15.20
2020,07,27,04,32,15.20
2020,07,27,04,33,15.20
2020,07,27,04,34,15.30
2020,07,27,04,35,15.30
2020,07,27,04,36,15.30
2020,07,27,04,37,15.30
2020,07,27,04,38,15.30
2020,07,27,04,39,15.30
2020,07,27,04,40,15.20
2020,07,27,04,41,15.20
2020,07,27,04,42,15.20
2020,07,27,04,43,15.20
2020,07,27,04,44,15.20
2020,07,27,04,45,15.10
2020,07,27,04,46,15.10
2020,07,27,04,47,15.10
2020,07,27,04,48,15.10
2020,07,27,04,49,15.10
2020,07,27,04,50,15.10
2020,07,27,04,51,15.00
2020,07,27,04,52,15.00
2020,07,27,04,53,15.00
2020,07,27,04,54,15.00
2020,07,27,04,55,14.90
2020,07,27,04,56,14.90
2020,07,27,04,57,14.90
2020,07,27,04,58,14.90
2020,07,27,04,59,14.90
2020,07,27,05,00,14.90
2020,07,27,05,01,14.80
2020,07,27,05,02,14.80
2020,07,27,05,03,14.80
2020,07,27,05,04,14.80
2020,07,27,05,05,14.80
2020,07,27,05,06,14.80
2020,07,27,05,07,14.80
2020,07,27,05,08,14.90
2020,07,27,05,09,14.90
2020,07,27,05,10,14.90
2020,07,27,05,11,14.90
2020,07,27,05,12,14.90
2020,07,27,05,13,14.90
2020,07,27,05,14,14.90
2020,07,27,05,15,14.90
2020,07,27,05,16,14.90
2020,07,27,05,17,15.00
2020,07,27,05,18,15.00
2020,07,27,05,19,15.00
2020,07,27,05,20,15.00
2020,07,27,05,21,15.00
2020,07,27,05,22,15.00
2020,07,27,05,23,15.00
2020,07,27,05,24,15.00
2020,07,27,05,25,14.90
2020,07,27,05,26,15.00
2020,07,27,05,27,15.00
2020,07,27,05,28,14.90
2020,07,27,05,29,14.90
2020,07,27,05,30,14.90
2020,07,27,05,31,14.90
2020,07,27,05,32,14.90
2020,07,27,05,33,14.90
2020,07,27,05,34,14.90
2020,07,27,05,35,14.80
2020,07,27,05,36,14.80
2020,07,27,05,37,14.80
2020,07,27,05,38,14.80
2020,07,27,05,39,14.80
2020,07,27,05,40,14.80
2020,07,27,05,41,14.80
2020,07,27,05,42,14.80
2020,07,27,05,43,14.80
2020,07,27,05,44,14.80
2020,07,27,05,45,14.80
2020,07,27,05,46,14.70
2020,07,27,05,47,14.80
2020,07,27,05,48,14.80
2020,07,27,05,49,14.70
2020,07,27,05,50,14.70
2020,07,27,05,51,14.70
2020,07,27,05,52,14.70
2020,07,27,05,53,14.70
2020,07,27,05,54,14.70
2020,07,27,05,55,14.60
2020,07,27,05,56,14.60
2020,07,27,05,57,14.60
2020,07,27,05,58,14.60
2020,07,27,05,59,14.60
2020,07,27,06,00,14.60
2020,07,27,06,01,14.60
2020,07,27,06,02,14.60
2020,07,27,06,03,14.50
2020,07,27,06,04,14.50
2020,07,27,06,05,14.50
2020,07,27,06,06,14.50
2020,07,27,06,07,14.50
2020,07,27,06,08,14.50
2020,07,27,06,09,14.50
2020,07,27,06,10,14.50
2020,07,27,06,11,14.50
2020,07,27,06,12,14.50
2020,07,27,06,13,14.40
2020,07,27,06,14,14.50
2020,07,27,06,15,14.50
2020,07,27,06,16,14.50
2020,07,27,06,17,14.50
2020,07,27,06,18,14.50
2020,07,27,06,19,14.50
2020,07,27,06,20,14.50
2020,07,27,06,21,14.60
2020,07,27,06,22,14.60
2020,07,27,06,23,14.60
2020,07,27,06,24,14.60
2020,07,27,06,25,14.60
2020,07,27,06,26,14.60
2020,07,27,06,27,14.60
2020,07,27,06,28,14.70
2020,07,27,06,29,14.70
2020,07,27,06,30,14.70
2020,07,27,06,31,14.70
2020,07,27,06,32,14.70
2020,07,27,06,33,14.70
2020,07,27,06,34,14.80
2020,07,27,06,35,14.80
2020,07,27,06,36,14.80
2020,07,27,06,37,14.80
2020,07,27,06,38,14.90
2020,07,27,06,39,14.90
2020,07,27,06,40,14.90
2020,07,27,06,41,15.00
2020,07,27,06,42,15.00
2020,07,27,06,43,15.00
2020,07,27,06,44,15.10
2020,07,27,06,45,15.10
2020,07,27,06,46,15.10
2020,07,27,06,47,15.10
2020,07,27,06,48,15.10
2020,07,27,06,49,15.10
2020,07,27,06,50,15.10
2020,07,27,06,51,15.10
2020,07,27,06,52,15.10
2020,07,27,06,53,15.10
2020,07,27,06,54,15.10
2020,07,27,06,55,15.20
2020,07,27,06,56,15.20
2020,07,27,06,57,15.20
2020,07,27,06,58,15.20
2020,07,27,06,59,15.20
2020,07,27,07,00,15.20
2020,07,27,07,01,15.20
2020,07,27,07,02,15.20
2020,07,27,07,03,15.20
2020,07,27,07,04,15.20
2020,07,27,07,05,15.20
2020,07,27,07,06,15.20
2020,07,27,07,07,15.30
2020,07,27,07,08,15.30
2020,07,27,07,09,15.30
2020,07,27,07,10,15.30
2020,07,27,07,11,15.40
2020,07,27,07,12,15.50
2020,07,27,07,13,15.60
2020,07,27,07,14,15.70
2020,07,27,07,15,15.80
2020,07,27,07,16,15.90
2020,07,27,07,17,16.00
2020,07,27,07,18,16.10
2020,07,27,07,19,16.10
2020,07,27,07,20,16.20
2020,07,27,07,21,16.30
2020,07,27,07,22,16.40
2020,07,27,07,23,16.50
2020,07,27,07,24,16.70
2020,07,27,07,25,16.80
2020,07,27,07,26,16.90
2020,07,27,07,27,17.00
2020,07,27,07,28,17.20
2020,07,27,07,29,17.30
2020,07,27,07,30,17.40
2020,07,27,07,31,17.60
2020,07,27,07,32,17.70
2020,07,27,07,33,17.80
2020,07,27,07,34,18.00
2020,07,27,07,35,18.10
2020,07,27,07,36,18.30
2020,07,27,07,37,18.50
2020,07,27,07,38,18.70
2020,07,27,07,39,18.90
2020,07,27,07,40,19.00
2020,07,27,07,41,19.10
2020,07,27,07,42,19.20
2020,07,27,07,43,19.30
2020,07,27,07,44,19.40
2020,07,27,07,45,19.50
2020,07,27,07,46,19.60
2020,07,27,07,47,19.80
2020,07,27,07,48,20.00
2020,07,27,07,49,20.10
2020,07,27,07,50,20.20
2020,07,27,07,51,20.40
2020,07,27,07,52,20.60
2020,07,27,07,53,20.70
2020,07,27,07,54,20.90
2020,07,27,07,55,21.00
2020,07,27,07,56,21.20
2020,07,27,07,57,21.40
2020,07,27,07,58,21.60
2020,07,27,07,59,21.70
2020,07,27,08,00,21.80
2020,07,27,08,01,22.00
2020,07,27,08,02,22.20
2020,07,27,08,03,22.30
2020,07,27,08,04,22.50
2020,07,27,08,05,22.60
2020,07,27,08,06,22.70
2020,07,27,08,07,22.90
2020,07,27,08,08,23.10
2020,07,27,08,09,23.20
2020,07,27,08,10,23.40
2020,07,27,08,11,23.60
2020,07,27,08,12,23.70
2020,07,27,08,13,23.80
2020,07,27,08,14,23.90
2020,07,27,08,15,23.90
2020,07,27,08,16,24.00
2020,07,27,08,17,24.10
2020,07,27,08,18,24.10
2020,07,27,08,19,24.20
2020,07,27,08,20,24.20
2020,07,27,08,21,24.20
2020,07,27,08,22,24.20
2020,07,27,08,23,24.20
2020,07,27,08,24,24.30
2020,07,27,08,25,24.30
2020,07,27,08,26,24.20
2020,07,27,08,27,24.20
2020,07,27,08,28,24.20
2020,07,27,08,29,24.20
2020,07,27,08,30,24.30
2020,07,27,08,31,24.40
2020,07,27,08,32,24.40
2020,07,27,08,33,24.50
2020,07,27,08,34,24.40
2020,07,27,08,35,24.40
2020,07,27,08,36,24.40
2020,07,27,08,37,24.40
2020,07,27,08,38,24.50
2020,07,27,08,39,24.60
2020,07,27,08,40,24.60
2020,07,27,08,41,24.70
2020,07,27,08,42,24.80
2020,07,27,08,43,24.90
2020,07,27,08,44,25.00
2020,07,27,08,45,25.10
2020,07,27,08,46,25.20
2020,07,27,08,47,25.20
2020,07,27,08,48,25.30
2020,07,27,08,49,25.40
2020,07,27,08,50,25.40
2020,07,27,08,51,25.40
2020,07,27,08,52,25.50
2020,07,27,08,53,25.50
2020,07,27,08,54,25.50
2020,07,27,08,55,25.40
2020,07,27,08,56,25.50
2020,07,27,08,57,25.50
2020,07,27,08,58,25.50
2020,07,27,08,59,25.40
2020,07,27,09,00,25.40
2020,07,27,09,01,25.30
2020,07,27,09,02,25.30
2020,07,27,09,03,25.30
2020,07,27,09,04,25.30
2020,07,27,09,05,25.40
2020,07,27,09,06,25.40
2020,07,27,09,07,25.40
2020,07,27,09,08,25.30
2020,07,27,09,09,25.30
2020,07,27,09,10,25.30
2020,07,27,09,11,25.30
2020,07,27,09,12,25.30
2020,07,27,09,13,25.40
2020,07,27,09,14,25.50
2020,07,27,09,15,25.60
2020,07,27,09,16,25.80
2020,07,27,09,17,25.90
2020,07,27,09,18,25.90
2020,07,27,09,19,26.10
2020,07,27,09,20,26.20
2020,07,27,09,21,26.20
2020,07,27,09,22,26.30
2020,07,27,09,23,26.50
2020,07,27,09,24,26.60
2020,07,27,09,25,26.50
2020,07,27,09,26,26.40
2020,07,27,09,27,26.30
2020,07,27,09,28,26.30
2020,07,27,09,29,26.40
2020,07,27,09,30,26.30
2020,07,27,09,31,26.40
2020,07,27,09,32,26.40
2020,07,27,09,33,26.30
2020,07,27,09,34,26.30
2020,07,27,09,35,26.20
2020,07,27,09,36,26.10
2020,07,27,09,37,26.10
2020,07,27,09,38,26.10
2020,07,27,09,39,26.10
2020,07,27,09,40,26.10
2020,07,27,09,41,26.20
2020,07,27,09,42,26.20
2020,07,27,09,43,26.30
2020,07,27,09,44,26.40
2020,07,27,09,45,26.50
2020,07,27,09,46,26.70
2020,07,27,09,47,26.80
2020,07,27,09,48,27.00
2020,07,27,09,49,27.00
2020,07,27,09,50,27.00
2020,07,27,09,51,27.00
2020,07,27,09,52,26.90
2020,07,27,09,53,26.90
2020,07,27,09,54,26.90
2020,07,27,09,55,27.00
2020,07,27,09,56,26.90
2020,07,27,09,57,26.90
2020,07,27,09,58,26.90
2020,07,27,09,59,26.90
2020,07,27,10,00,27.00
2020,07,27,10,01,26.90
2020,07,27,10,02,26.80
2020,07,27,10,03,26.80
2020,07,27,10,04,26.80
2020,07,27,10,05,26.80
2020,07,27,10,06,26.90
2020,07,27,10,07,26.90
2020,07,27,10,08,26.80
2020,07,27,10,09,26.90
2020,07,27,10,10,27.00
2020,07,27,10,11,27.10
2020,07,27,10,12,27.20
2020,07,27,10,13,27.20
2020,07,27,10,14,27.30
2020,07,27,10,15,27.30
2020,07,27,10,16,27.30
2020,07,27,10,17,27.40
2020,07,27,10,18,27.40
2020,07,27,10,19,27.30
2020,07,27,10,20,27.40
2020,07,27,10,21,27.40
2020,07,27,10,22,27.50
2020,07,27,10,23,27.60
2020,07,27,10,24,27.60
2020,07,27,10,25,27.60
2020,07,27,10,26,27.60
2020,07,27,10,27,27.60
2020,07,27,10,28,27.60
2020,07,27,10,29,27.80
2020,07,27,10,30,27.80
2020,07,27,10,31,27.80
2020,07,27,10,32,27.80
2020,07,27,10,33,27.80
2020,07,27,10,34,27.80
2020,07,27,10,35,27.90
2020,07,27,10,36,28.00
2020,07,27,10,37,28.00
2020,07,27,10,38,28.00
2020,07,27,10,39,28.00
2020,07,27,10,40,28.00
2020,07,27,10,41,27.90
2020,07,27,10,42,28.00
2020,07,27,10,43,28.00
2020,07,27,10,44,28.10
2020,07,27,10,45,28.10
2020,07,27,10,46,28.10
2020,07,27,10,47,28.10
2020,07,27,10,48,28.00
2020,07,27,10,49,28.00
2020,07,27,10,50,28.10
2020,07,27,10,51,28.10
2020,07,27,10,52,28.10
2020,07,27,10,53,28.00
2020,07,27,10,54,27.90
2020,07,27,10,55,27.90
2020,07,27,10,56,27.80
2020,07,27,10,57,27.80
2020,07,27,10,58,27.70
2020,07,27,10,59,27.60
2020,07,27,11,00,27.50
2020,07,27,11,01,27.40
2020,07,27,11,02,27.40
2020,07,27,11,03,27.40
2020,07,27,11,04,27.40
2020,07,27,11,05,27.40
2020,07,27,11,06,27.50
2020,07,27,11,07,27.50
2020,07,27,11,08,27.60
2020,07,27,11,09,27.60
2020,07,27,11,10,27.50
2020,07,27,11,11,27.50
2020,07,27,11,12,27.60
2020,07,27,11,13,27.70
2020,07,27,11,14,27.80
2020,07,27,11,15,27.90
2020,07,27,11,16,27.90
2020,07,27,11,17,28.00
2020,07,27,11,18,27.70
2020,07,27,11,19,27.50
2020,07,27,11,20,27.30
2020,07,27,11,21,27.30
2020,07,27,11,22,27.10
2020,07,27,11,23,27.10
2020,07,27,11,24,27.00
2020,07,27,11,25,27.10
2020,07,27,11,26,27.20
2020,07,27,11,27,27.20
2020,07,27,11,28,27.20
2020,07,27,11,29,27.20
2020,07,27,11,30,27.20
2020,07,27,11,31,27.20
2020,07,27,11,32,27.20
2020,07,27,11,33,27.10
2020,07,27,11,34,27.20
2020,07,27,11,35,27.30
2020,07,27,11,36,27.50
2020,07,27,11,37,27.70
2020,07,27,11,38,27.80
2020,07,27,11,39,27.80
2020,07,27,11,40,27.80
2020,07,27,11,41,27.70
2020,07,27,11,42,27.40
2020,07,27,11,43,27.20
2020,07,27,11,44,27.10
2020,07,27,11,45,27.00
2020,07,27,11,46,27.00
2020,07,27,11,47,27.00
2020,07,27,11,48,26.90
2020,07,27,11,49,26.90
2020,07,27,11,50,26.90
2020,07,27,11,51,26.90
2020,07,27,11,52,26.90
2020,07,27,11,53,26.90
2020,07,27,11,54,27.00
2020,07,27,11,55,27.30
2020,07,27,11,56,27.50
2020,07,27,11,57,27.70
2020,07,27,11,58,27.70
2020,07,27,11,59,27.70
2020,07,27,12,00,27.70
2020,07,27,12,01,27.70
2020,07,27,12,02,27.70
2020,07,27,12,03,27.70
2020,07,27,12,04,27.80
2020,07,27,12,05,27.70
2020,07,27,12,06,27.70
2020,07,27,12,07,27.60
2020,07,27,12,08,27.60
2020,07,27,12,09,27.60
2020,07,27,12,10,27.80
2020,07,27,12,11,27.90
2020,07,27,12,12,28.00
2020,07,27,12,13,28.00
2020,07,27,12,14,28.00
2020,07,27,12,15,28.00
2020,07,27,12,16,28.10
2020,07,27,12,17,28.10
2020,07,27,12,18,28.00
2020,07,27,12,19,27.90
2020,07,27,12,20,27.90
2020,07,27,12,21,28.00
2020,07,27,12,22,28.20
2020,07,27,12,23,28.20
2020,07,27,12,24,28.30
2020,07,27,12,25,28.30
2020,07,27,12,26,28.40
2020,07,27,12,27,28.30
2020,07,27,12,28,28.40
2020,07,27,12,29,28.20
2020,07,27,12,30,28.10
2020,07,27,12,31,28.00
2020,07,27,12,32,28.00
2020,07,27,12,33,28.10
2020,07,27,12,34,28.20
2020,07,27,12,35,28.40
2020,07,27,12,36,28.50
2020,07,27,12,37,28.50
2020,07,27,12,38,28.40
2020,07,27,12,39,28.40
2020,07,27,12,40,28.40
2020,07,27,12,41,28.50
2020,07,27,12,42,28.60
2020,07,27,12,43,28.50
2020,07,27,12,44,28.60
2020,07,27,12,45,28.70
2020,07,27,12,46,28.80
2020,07,27,12,47,29.00
2020,07,27,12,48,29.00
2020,07,27,12,49,29.10
2020,07,27,12,50,29.20
2020,07,27,12,51,29.20
2020,07,27,12,52,29.10
2020,07,27,12,53,28.90
2020,07,27,12,54,28.80
2020,07,27,12,55,28.60
2020,07,27,12,56,28.60
2020,07,27,12,57,28.60
2020,07,27,12,58,28.60
2020,07,27,12,59,28.60
2020,07,27,13,00,28.60
2020,07,27,13,01,28.60
2020,07,27,13,02,28.60
2020,07,27,13,03,28.60
2020,07,27,13,04,28.80
2020,07,27,13,05,28.90
2020,07,27,13,06,29.00
2020,07,27,13,07,29.20
2020,07,27,13,08,29.50
2020,07,27,13,09,29.60
2020,07,27,13,10,29.50
2020,07,27,13,11,29.40
2020,07,27,13,12,29.40
2020,07,27,13,13,29.40
2020,07,27,13,14,29.50
2020,07,27,13,15,29.40
2020,07,27,13,16,29.30
2020,07,27,13,17,29.20
2020,07,27,13,18,29.30
2020,07,27,13,19,29.30
2020,07,27,13,20,29.40
2020,07,27,13,21,29.40
2020,07,27,13,22,29.40
2020,07,27,13,23,29.40
2020,07,27,13,24,29.10
2020,07,27,13,25,28.90
2020,07,27,13,26,28.90
2020,07,27,13,27,29.00
2020,07,27,13,28,29.10
2020,07,27,13,29,29.20
2020,07,27,13,30,29.20
2020,07,27,13,31,29.10
2020,07,27,13,32,29.00
2020,07,27,13,33,29.00
2020,07,27,13,34,29.00
2020,07,27,13,35,29.10
2020,07,27,13,36,29.30
2020,07,27,13,37,29.40
2020,07,27,13,38,29.40
2020,07,27,13,39,29.50
2020,07,27,13,40,29.50
2020,07,27,13,41,29.30
2020,07,27,13,42,29.30
2020,07,27,13,43,29.30
2020,07,27,13,44,29.30
2020,07,27,13,45,29.20
2020,07,27,13,46,29.10
2020,07,27,13,47,29.00
2020,07,27,13,48,29.10
2020,07,27,13,49,29.20
2020,07,27,13,50,29.40
2020,07,27,13,51,29.50
2020,07,27,13,52,29.50
2020,07,27,13,53,29.40
2020,07,27,13,54,29.30
2020,07,27,13,55,29.30
2020,07,27,13,56,29.40
2020,07,27,13,57,29.40
2020,07,27,13,58,29.50
2020,07,27,13,59,29.50
2020,07,27,14,00,29.60
2020,07,27,14,01,29.80
2020,07,27,14,02,29.90
2020,07,27,14,03,30.10
2020,07,27,14,04,30.30
2020,07,27,14,05,30.40
2020,07,27,14,06,30.40
2020,07,27,14,07,30.30
2020,07,27,14,08,30.00
2020,07,27,14,09,29.80
2020,07,27,14,10,29.60
2020,07,27,14,11,29.50
2020,07,27,14,12,29.50
2020,07,27,14,13,29.50
2020,07,27,14,14,29.60
2020,07,27,14,15,29.70
2020,07,27,14,16,29.90
2020,07,27,14,17,29.90
2020,07,27,14,18,29.90
2020,07,27,14,19,30.00
2020,07,27,14,20,30.10
2020,07,27,14,21,30.20
2020,07,27,14,22,30.30
2020,07,27,14,23,30.30
2020,07,27,14,24,30.20
2020,07,27,14,25,30.10
2020,07,27,14,26,30.10
2020,07,27,14,27,30.10
2020,07,27,14,28,30.10
2020,07,27,14,29,30.20
2020,07,27,14,30,30.30
2020,07,27,14,31,30.20
2020,07,27,14,32,30.30
2020,07,27,14,33,30.50
2020,07,27,14,34,30.60
2020,07,27,14,35,30.60
2020,07,27,14,36,30.50
2020,07,27,14,37,30.30
2020,07,27,14,38,30.20
2020,07,27,14,39,30.20
2020,07,27,14,40,30.10
2020,07,27,14,41,30.10
2020,07,27,14,42,30.20
2020,07,27,14,43,30.30
2020,07,27,14,44,30.30
2020,07,27,14,45,30.20
2020,07,27,14,46,29.90
2020,07,27,14,47,29.80
2020,07,27,14,48,29.80
2020,07,27,14,49,29.80
2020,07,27,14,50,29.60
2020,07,27,14,51,29.50
2020,07,27,14,52,29.60
2020,07,27,14,53,29.60
2020,07,27,14,54,29.50
2020,07,27,14,55,29.40
2020,07,27,14,56,29.40
2020,07,27,14,57,29.40
2020,07,27,14,58,29.40
2020,07,27,14,59,29.50
2020,07,27,15,00,29.60
2020,07,27,15,01,29.70
2020,07,27,15,02,29.90
2020,07,27,15,03,30.00
2020,07,27,15,04,30.10
2020,07,27,15,05,30.10
2020,07,27,15,06,30.10
2020,07,27,15,07,30.10
2020,07,27,15,08,30.10
2020,07,27,15,09,30.10
2020,07,27,15,10,30.20
2020,07,27,15,11,30.20
2020,07,27,15,12,30.30
2020,07,27,15,13,30.40
2020,07,27,15,14,30.60
2020,07,27,15,15,30.50
2020,07,27,15,16,30.40
2020,07,27,15,17,30.40
2020,07,27,15,18,30.30
2020,07,27,15,19,30.20
2020,07,27,15,20,30.20
2020,07,27,15,21,30.20
2020,07,27,15,22,30.10
2020,07,27,15,23,29.80
2020,07,27,15,24,29.80
2020,07,27,15,25,29.90
2020,07,27,15,26,30.00
2020,07,27,15,27,30.20
2020,07,27,15,28,30.30
2020,07,27,15,29,30.50
2020,07,27,15,30,30.60
2020,07,27,15,31,30.70
2020,07,27,15,32,30.70
2020,07,27,15,33,30.80
2020,07,27,15,34,30.70
2020,07,27,15,35,30.30
2020,07,27,15,36,30.10
2020,07,27,15,37,30.00
2020,07,27,15,38,29.80
2020,07,27,15,39,29.70
2020,07,27,15,40,29.50
2020,07,27,15,41,29.40
2020,07,27,15,42,29.30
2020,07,27,15,43,29.40
2020,07,27,15,44,29.40
2020,07,27,15,45,29.40
2020,07,27,15,46,29.50
2020,07,27,15,47,29.50
2020,07,27,15,48,29.50
2020,07,27,15,49,29.50
2020,07,27,15,50,29.60
2020,07,27,15,51,29.60
2020,07,27,15,52,29.40
2020,07,27,15,53,29.30
2020,07,27,15,54,29.30
2020,07,27,15,55,29.30
2020,07,27,15,56,29.20
2020,07,27,15,57,29.30
2020,07,27,15,58,29.30
2020,07,27,15,59,29.40
2020,07,27,16,00,29.40
2020,07,27,16,01,29.40
2020,07,27,16,02,29.70
2020,07,27,16,03,29.80
2020,07,27,16,04,29.90
2020,07,27,16,05,30.00
2020,07,27,16,06,29.90
2020,07,27,16,07,29.80
2020,07,27,16,08,29.90
2020,07,27,16,09,30.10
2020,07,27,16,10,30.20
2020,07,27,16,11,30.40
2020,07,27,16,12,30.60
2020,07,27,16,13,30.60
2020,07,27,16,14,30.50
2020,07,27,16,15,30.40
2020,07,27,16,16,30.40
2020,07,27,16,17,30.40
2020,07,27,16,18,30.60
2020,07,27,16,19,30.70
2020,07,27,16,20,30.80
2020,07,27,16,21,30.80
2020,07,27,16,22,30.70
2020,07,27,16,23,30.70
2020,07,27,16,24,30.60
2020,07,27,16,25,30.60
2020,07,27,16,26,30.70
2020,07,27,16,27,30.90
2020,07,27,16,28,31.00
2020,07,27,16,29,31.00
2020,07,27,16,30,31.00
2020,07,27,16,31,31.10
2020,07,27,16,32,31.20
2020,07,27,16,33,31.20
2020,07,27,16,34,31.20
2020,07,27,16,35,31.20
2020,07,27,16,36,31.20
2020,07,27,16,37,31.20
2020,07,27,16,38,31.30
2020,07,27,16,39,31.30
2020,07,27,16,40,31.40
2020,07,27,16,41,31.50
2020,07,27,16,42,31.70
2020,07,27,16,43,31.70
2020,07,27,16,44,31.70
2020,07,27,16,45,31.80
2020,07,27,16,46,31.70
2020,07,27,16,47,31.70
2020,07,27,16,48,31.80
2020,07,27,16,49,31.80
2020,07,27,16,50,31.90
2020,07,27,16,51,31.90
2020,07,27,16,52,31.90
2020,07,27,16,53,31.90
2020,07,27,16,54,31.90
2020,07,27,16,55,31.80
2020,07,27,16,56,31.80
2020,07,27,16,57,31.80
2020,07,27,16,58,31.80
2020,07,27,16,59,32.10
2020,07,27,17,00,32.20
2020,07,27,17,01,32.30
2020,07,27,17,02,32.30
2020,07,27,17,03,32.30
2020,07,27,17,04,32.30
2020,07,27,17,05,32.40
2020,07,27,17,06,32.40
2020,07,27,17,07,32.40
2020,07,27,17,08,32.40
2020,07,27,17,09,32.30
2020,07,27,17,10,32.10
2020,07,27,17,11,32.00
2020,07,27,17,12,32.00
2020,07,27,17,13,32.00
2020,07,27,17,14,32.10
2020,07,27,17,15,32.20
2020,07,27,17,16,32.20
2020,07,27,17,17,32.30
2020,07,27,17,18,32.40
2020,07,27,17,19,32.40